Showing default

NIGCOMSAT 1R, 38014

Orbit data source: Space-Track

NIGCOMSAT 1R, 38014 is a payload satellite owned by Nigcomsat (NG) in GEO that was launched on Mon, 19 Dec 2011 UTC via a CHANG ZHENG 3B launch vehicle from the Xichang Space Center, China (XSC). Payload-class satellites include a variety of spacecraft equipped with specific instruments for various scientific and technological missions. These include communications satellites like Starlink; space stations such as the ISS; scientific satellites like the Hubble; Earth observation satellites from companies like Planet Labs, Umbra, and HawkEye 360; GPS; miniature CubeSats for education and research; and military/defense satellites.

Not visible in the next 10 days
Identifier
38014, 2011-077A
Orbit
GEO
Country
Flag of NGNG / NIG
Related business
Manufacturer
CAST
Mission
Operational Civil Communications
Bus & Motor
DFH-4, DFH-4 LAE
Mass
~5,086 kg wet, ~2,500 kg dry
Launch date (UTC)
2011-12-19 (14 years ago)
Launch vehicle
CHANG ZHENG 3B
Launch site
Xichang Space Center, China (XSC)
Object type
Payload
Rocket body
Debris
Shape & HBR
Box + 2 Pan, 15.0 m
Radar Cross Section
34.063 m², Large (>1 m²)

Expand to show TLE details & history
Last TLE update: 10 hours ago

TLE from 10 hours ago
0 NIGCOMSAT 1R
1 38014U 11077A   26124.13167219  .00000153  00000-0  00000+0 0  9995
2 38014   0.0216 235.5785 0002857 115.7386 320.6221  1.00269805 52515
Epoch: 2026-05-04T03:09Z
TLE epoch observation values (Epoch: 2026-05-04T03:09:36.477Z)
Latitude
0.03616°
Longitude
42.4846°
Altitude
35,777.379 km
Speed
3.075 km/s
True Right ascension
20h 47m 38s
True Declination
0° 02' 10"
Sunlit
Object was in daylight at epoch
Visualization orbit readout
Latitude
Unknown
Longitude
Unknown
Altitude
Unknown
Speed
Unknown
Apparent Right ascension
Unknown
Apparent Declination
Unknown
Sunlit
N/A
Visualization observer readout
Local Sidereal Time
21:05:50
Azimuth
Unknown
Elevation
Unknown
Doppler factor
Unknown
Orbital elements
Apogee altitude
35,800.267 km
Perigee altitude
35,776.173 km
Semi-major axis
42,166.357 km
Eccentricity
0.00029
Inclination
0.0216°
RAAN
235.5785°
Arg. of periapsis
115.7386°
True anomaly
320.60132°
Mean anomaly
320.6221°
Eccentric anomaly
320.61171°
Mean motion
0.25067 °/min
Orbital period
1,436.18 mins
BSTAR
0
Loading maneuver chart data...
Computing Atmospheric mass density...
Loading historical data...
Loading historical data...
Loading historical data...
Loading historical data...
Loading historical data...
Loading historical data...
Loading historical data...

Documentation

Showing up to 5 results
|